Time,TemperatureF,DewpointF,PressureIn,WindDirection,WindDirectionDegrees,WindSpeedMPH,WindSpeedGustMPH,Humidity,HourlyPrecipIn,Conditions,Clouds,dailyrainin,SoftwareType,DateUTC
2013-03-16 00:03:00,44.0,28.0,-100.00,East,95,14.0,21.0,53,-99.99,,,-99.99,,2013-03-16 04:03:00,
2013-03-16 00:13:00,44.0,28.0,-100.00,East,90,14.0,24.0,53,-99.99,,,-99.99,,2013-03-16 04:13:00,
2013-03-16 00:23:00,44.0,28.0,-100.00,East,90,14.0,24.0,53,-99.99,,,-99.99,,2013-03-16 04:23:00,
2013-03-16 00:33:00,44.0,28.0,-100.00,East,95,12.0,22.0,52,-99.99,,,-99.99,,2013-03-16 04:33:00,
2013-03-16 00:43:00,44.0,28.0,-100.00,East,95,13.0,19.0,53,-99.99,,,-99.99,,2013-03-16 04:43:00,
2013-03-16 00:53:00,44.0,28.0,-100.00,East,95,13.0,19.0,53,-99.99,,,-99.99,,2013-03-16 04:53:00,
2013-03-16 01:03:00,43.0,27.0,-100.00,East,100,7.0,16.0,53,-99.99,,,-99.99,,2013-03-16 05:03:00,
2013-03-16 01:12:00,43.0,28.0,-100.00,ESE,110,6.0,11.0,55,-99.99,,,-99.99,,2013-03-16 05:12:00,
2013-03-16 01:22:00,43.0,28.0,-100.00,ESE,110,6.0,11.0,55,-99.99,,,-99.99,,2013-03-16 05:22:00,
2013-03-16 01:32:00,42.0,27.0,-100.00,ESE,115,4.0,11.0,56,-99.99,,,-99.99,,2013-03-16 05:32:00,
2013-03-16 01:42:00,41.0,27.0,-100.00,ESE,105,4.0,11.0,57,-99.99,,,-99.99,,2013-03-16 05:42:00,
2013-03-16 01:52:00,41.0,27.0,-100.00,ESE,105,4.0,11.0,57,-99.99,,,-99.99,,2013-03-16 05:52:00,
2013-03-16 02:02:00,41.0,27.0,-100.00,SE,125,4.0,9.0,57,-99.99,,,-99.99,,2013-03-16 06:02:00,
2013-03-16 02:12:00,41.0,27.0,-100.00,SSE,155,2.0,11.0,57,-99.99,,,-99.99,,2013-03-16 06:12:00,
2013-03-16 02:22:00,41.0,27.0,-100.00,SSE,155,2.0,11.0,57,-99.99,,,-99.99,,2013-03-16 06:22:00,
2013-03-16 02:32:00,40.0,26.0,-100.00,SSE,150,5.0,9.0,57,-99.99,,,-99.99,,2013-03-16 06:32:00,
2013-03-16 02:42:00,39.0,25.0,-100.00,SSE,165,5.0,7.0,57,-99.99,,,-99.99,,2013-03-16 06:42:00,
2013-03-16 02:52:00,39.0,25.0,-100.00,SSE,165,5.0,7.0,57,-99.99,,,-99.99,,2013-03-16 06:52:00,
2013-03-16 03:02:00,39.0,25.0,-100.00,NE,50,1.0,6.0,58,-99.99,,,-99.99,,2013-03-16 07:02:00,
2013-03-16 03:12:00,37.0,25.0,-100.00,North,0,2.0,5.0,62,-99.99,,,-99.99,,2013-03-16 07:12:00,
2013-03-16 03:22:00,37.0,25.0,-100.00,North,0,2.0,5.0,62,-99.99,,,-99.99,,2013-03-16 07:22:00,
2013-03-16 03:32:00,36.0,25.0,-100.00,NE,50,4.0,5.0,64,-99.99,,,-99.99,,2013-03-16 07:32:00,
2013-03-16 03:42:00,37.0,25.0,-100.00,East,90,3.0,5.0,61,-99.99,,,-99.99,,2013-03-16 07:42:00,
2013-03-16 03:52:00,37.0,25.0,-100.00,East,90,3.0,5.0,61,-99.99,,,-99.99,,2013-03-16 07:52:00,
2013-03-16 04:03:00,37.0,26.0,-100.00,SE,130,4.0,7.0,62,-99.99,,,-99.99,,2013-03-16 08:03:00,
2013-03-16 04:12:00,38.0,25.0,-100.00,SE,145,4.0,12.0,60,-99.99,,,-99.99,,2013-03-16 08:12:00,
2013-03-16 04:23:00,38.0,25.0,-100.00,SE,145,4.0,12.0,60,-99.99,,,-99.99,,2013-03-16 08:23:00,
2013-03-16 04:42:00,37.0,24.0,-100.00,SSE,155,4.0,8.0,60,-99.99,,,-99.99,,2013-03-16 08:42:00,
2013-03-16 04:52:00,37.0,24.0,-100.00,SSE,155,4.0,8.0,60,-99.99,,,-99.99,,2013-03-16 08:52:00,
2013-03-16 05:02:00,37.0,24.0,-100.00,South,170,3.0,7.0,59,-99.99,,,-99.99,,2013-03-16 09:02:00,
2013-03-16 05:12:00,37.0,23.0,-100.00,SSE,150,3.0,9.0,58,-99.99,,,-99.99,,2013-03-16 09:12:00,
2013-03-16 05:22:00,37.0,23.0,-100.00,SSE,150,3.0,9.0,58,-99.99,,,-99.99,,2013-03-16 09:22:00,
2013-03-16 05:33:00,37.0,23.0,-100.00,SE,145,4.0,8.0,58,-99.99,,,-99.99,,2013-03-16 09:33:00,
2013-03-16 05:42:00,36.0,22.0,-100.00,SE,135,5.0,10.0,57,-99.99,,,-99.99,,2013-03-16 09:42:00,
2013-03-16 05:52:00,36.0,22.0,-100.00,SE,135,5.0,10.0,57,-99.99,,,-99.99,,2013-03-16 09:52:00,
2013-03-16 06:03:00,36.0,22.0,-100.00,South,175,4.0,10.0,56,-99.99,,,-99.99,,2013-03-16 10:03:00,
2013-03-16 06:12:00,36.0,22.0,-100.00,SE,130,4.0,7.0,56,-99.99,,,-99.99,,2013-03-16 10:12:00,
2013-03-16 06:23:00,36.0,22.0,-100.00,SE,130,4.0,7.0,56,-99.99,,,-99.99,,2013-03-16 10:23:00,
2013-03-16 06:32:00,35.0,21.0,-100.00,SE,135,4.0,5.0,56,-99.99,,,-99.99,,2013-03-16 10:32:00,
2013-03-16 06:42:00,35.0,21.0,-100.00,East,80,2.0,7.0,56,-99.99,,,-99.99,,2013-03-16 10:42:00,
2013-03-16 06:53:00,35.0,21.0,-100.00,East,80,2.0,7.0,56,-99.99,,,-99.99,,2013-03-16 10:53:00,
2013-03-16 07:03:00,35.0,21.0,-100.00,SE,125,4.0,7.0,57,-99.99,,,-99.99,,2013-03-16 11:03:00,
2013-03-16 07:12:00,34.0,21.0,-100.00,East,100,1.0,4.0,58,-99.99,,,-99.99,,2013-03-16 11:12:00,
2013-03-16 07:22:00,34.0,21.0,-100.00,East,100,1.0,4.0,58,-99.99,,,-99.99,,2013-03-16 11:22:00,
2013-03-16 07:33:00,33.0,21.0,-100.00,North,0,0.0,4.0,60,-99.99,,,-99.99,,2013-03-16 11:33:00,
2013-03-16 07:43:00,32.0,21.0,-100.00,ESE,110,0.0,2.0,64,-99.99,,,-99.99,,2013-03-16 11:43:00,
2013-03-16 07:52:00,32.0,21.0,-100.00,ESE,110,0.0,2.0,64,-99.99,,,-99.99,,2013-03-16 11:52:00,
2013-03-16 08:02:00,31.0,22.0,-100.00,SW,215,1.0,2.0,68,-99.99,,,-99.99,,2013-03-16 12:02:00,
2013-03-16 08:12:00,31.0,22.0,-100.00,NNE,25,0.0,2.0,70,-99.99,,,-99.99,,2013-03-16 12:12:00,
2013-03-16 08:22:00,31.0,22.0,-100.00,NNE,25,0.0,2.0,70,-99.99,,,-99.99,,2013-03-16 12:22:00,
2013-03-16 08:32:00,31.0,23.0,-100.00,SW,215,2.0,5.0,71,-99.99,,,-99.99,,2013-03-16 12:32:00,
2013-03-16 08:42:00,32.0,24.0,-100.00,SSW,200,3.0,5.0,70,-99.99,,,-99.99,,2013-03-16 12:42:00,
2013-03-16 08:52:00,32.0,24.0,-100.00,SSW,200,3.0,5.0,70,-99.99,,,-99.99,,2013-03-16 12:52:00,
2013-03-16 09:02:00,33.0,24.0,-100.00,SSW,210,1.0,4.0,69,-99.99,,,-99.99,,2013-03-16 13:02:00,
2013-03-16 09:12:00,33.0,24.0,-100.00,SW,220,2.0,4.0,69,-99.99,,,-99.99,,2013-03-16 13:12:00,
2013-03-16 09:23:00,33.0,24.0,-100.00,SW,220,2.0,4.0,69,-99.99,,,-99.99,,2013-03-16 13:23:00,
2013-03-16 09:32:00,34.0,25.0,-100.00,SW,220,3.0,5.0,69,-99.99,,,-99.99,,2013-03-16 13:32:00,
2013-03-16 09:42:00,35.0,24.0,-100.00,SW,235,4.0,7.0,66,-99.99,,,-99.99,,2013-03-16 13:42:00,
2013-03-16 09:53:00,35.0,24.0,-100.00,SW,235,4.0,7.0,66,-99.99,,,-99.99,,2013-03-16 13:53:00,
2013-03-16 10:03:00,35.0,24.0,-100.00,SW,230,4.0,9.0,63,-99.99,,,-99.99,,2013-03-16 14:03:00,
2013-03-16 10:12:00,35.0,23.0,-100.00,WSW,250,4.0,8.0,62,-99.99,,,-99.99,,2013-03-16 14:12:00,
2013-03-16 10:22:00,35.0,23.0,-100.00,WSW,250,4.0,8.0,62,-99.99,,,-99.99,,2013-03-16 14:22:00,
2013-03-16 10:32:00,35.0,23.0,-100.00,WSW,250,5.0,6.0,59,-99.99,,,-99.99,,2013-03-16 14:32:00,
2013-03-16 10:42:00,35.0,22.0,-100.00,WSW,245,4.0,9.0,57,-99.99,,,-99.99,,2013-03-16 14:42:00,
2013-03-16 10:52:00,35.0,22.0,-100.00,WSW,245,4.0,9.0,57,-99.99,,,-99.99,,2013-03-16 14:52:00,
2013-03-16 11:03:00,35.0,21.0,-100.00,SW,235,5.0,9.0,56,-99.99,,,-99.99,,2013-03-16 15:03:00,
2013-03-16 11:13:00,35.0,21.0,-100.00,SW,230,5.0,9.0,56,-99.99,,,-99.99,,2013-03-16 15:13:00,
2013-03-16 11:23:00,35.0,21.0,-100.00,SW,230,5.0,9.0,56,-99.99,,,-99.99,,2013-03-16 15:23:00,
2013-03-16 11:33:00,36.0,22.0,-100.00,SW,215,6.0,9.0,57,-99.99,,,-99.99,,2013-03-16 15:33:00,
2013-03-16 11:43:00,36.0,23.0,-100.00,WSW,240,4.0,9.0,58,-99.99,,,-99.99,,2013-03-16 15:43:00,
2013-03-16 11:53:00,36.0,23.0,-100.00,WSW,240,4.0,9.0,58,-99.99,,,-99.99,,2013-03-16 15:53:00,
2013-03-16 12:03:00,36.0,23.0,-100.00,WSW,240,6.0,10.0,58,-99.99,,,-99.99,,2013-03-16 16:03:00,
2013-03-16 12:13:00,36.0,24.0,-100.00,South,180,4.0,7.0,61,-99.99,,,-99.99,,2013-03-16 16:13:00,
2013-03-16 12:23:00,36.0,24.0,-100.00,South,180,4.0,7.0,61,-99.99,,,-99.99,,2013-03-16 16:23:00,
2013-03-16 12:33:00,36.0,24.0,-100.00,West,275,5.0,9.0,62,-99.99,,,-99.99,,2013-03-16 16:33:00,
2013-03-16 12:42:00,35.0,24.0,-100.00,WSW,250,2.0,6.0,63,-99.99,,,-99.99,,2013-03-16 16:42:00,
2013-03-16 12:53:00,35.0,24.0,-100.00,WSW,250,2.0,6.0,63,-99.99,,,-99.99,,2013-03-16 16:53:00,
2013-03-16 13:03:00,35.0,24.0,-100.00,SSE,165,2.0,5.0,64,-99.99,,,-99.99,,2013-03-16 17:03:00,
2013-03-16 13:13:00,35.0,25.0,-100.00,NNW,345,2.0,4.0,66,-99.99,,,-99.99,,2013-03-16 17:13:00,
2013-03-16 13:23:00,35.0,25.0,-100.00,NNW,345,2.0,4.0,66,-99.99,,,-99.99,,2013-03-16 17:23:00,
2013-03-16 13:43:00,35.0,27.0,-100.00,SE,125,1.0,4.0,74,-99.99,,,-99.99,,2013-03-16 17:43:00,
2013-03-16 13:52:00,35.0,27.0,-100.00,SE,125,1.0,4.0,74,-99.99,,,-99.99,,2013-03-16 17:52:00,
2013-03-16 14:03:00,34.0,28.0,-100.00,SW,220,1.0,4.0,78,-99.99,,,-99.99,,2013-03-16 18:03:00,
2013-03-16 14:13:00,34.0,29.0,-100.00,SW,220,3.0,5.0,82,-99.99,,,-99.99,,2013-03-16 18:13:00,
2013-03-16 14:23:00,34.0,29.0,-100.00,SW,220,3.0,5.0,82,-99.99,,,-99.99,,2013-03-16 18:23:00,
2013-03-16 14:33:00,34.0,30.0,-100.00,South,180,3.0,5.0,86,-99.99,,,-99.99,,2013-03-16 18:33:00,
2013-03-16 14:43:00,34.0,31.0,-100.00,South,190,1.0,4.0,89,-99.99,,,-99.99,,2013-03-16 18:43:00,
2013-03-16 14:53:00,34.0,31.0,-100.00,South,190,1.0,4.0,89,-99.99,,,-99.99,,2013-03-16 18:53:00,
2013-03-16 15:02:00,33.0,31.0,-100.00,South,185,3.0,5.0,90,-99.99,,,-99.99,,2013-03-16 19:02:00,
2013-03-16 15:12:00,33.0,31.0,-100.00,SSW,205,4.0,6.0,92,-99.99,,,-99.99,,2013-03-16 19:12:00,
2013-03-16 15:22:00,33.0,31.0,-100.00,SSW,205,4.0,6.0,92,-99.99,,,-99.99,,2013-03-16 19:22:00,
2013-03-16 15:33:00,34.0,32.0,-100.00,SW,235,2.0,6.0,92,-99.99,,,-99.99,,2013-03-16 19:33:00,
2013-03-16 15:42:00,34.0,33.0,-100.00,SSW,205,5.0,8.0,93,-99.99,,,-99.99,,2013-03-16 19:42:00,
2013-03-16 15:52:00,34.0,33.0,-100.00,SSW,205,5.0,8.0,93,-99.99,,,-99.99,,2013-03-16 19:52:00,
2013-03-16 16:03:00,34.0,32.0,-100.00,SSW,200,4.0,9.0,93,-99.99,,,-99.99,,2013-03-16 20:03:00,
2013-03-16 16:13:00,33.0,32.0,-100.00,SW,235,4.0,9.0,93,-99.99,,,-99.99,,2013-03-16 20:13:00,
2013-03-16 16:22:00,33.0,32.0,-100.00,SW,235,4.0,9.0,93,-99.99,,,-99.99,,2013-03-16 20:22:00,
2013-03-16 16:33:00,34.0,32.0,-100.00,WSW,240,4.0,9.0,93,-99.99,,,-99.99,,2013-03-16 20:33:00,
2013-03-16 16:42:00,33.0,31.0,-100.00,SW,235,3.0,7.0,93,-99.99,,,-99.99,,2013-03-16 20:42:00,
2013-03-16 16:52:00,33.0,31.0,-100.00,SW,235,3.0,7.0,93,-99.99,,,-99.99,,2013-03-16 20:52:00,
2013-03-16 17:02:00,33.0,32.0,-100.00,SW,225,3.0,6.0,93,-99.99,,,-99.99,,2013-03-16 21:02:00,
2013-03-16 17:12:00,34.0,32.0,-100.00,SW,225,3.0,5.0,93,-99.99,,,-99.99,,2013-03-16 21:12:00,
2013-03-16 17:23:00,34.0,32.0,-100.00,SW,225,3.0,5.0,93,-99.99,,,-99.99,,2013-03-16 21:23:00,
2013-03-16 17:33:00,34.0,32.0,-100.00,SSW,200,4.0,6.0,94,-99.99,,,-99.99,,2013-03-16 21:33:00,
2013-03-16 17:43:00,34.0,32.0,-100.00,SSW,200,5.0,6.0,94,-99.99,,,-99.99,,2013-03-16 21:43:00,
2013-03-16 17:52:00,34.0,32.0,-100.00,SSW,200,5.0,6.0,94,-99.99,,,-99.99,,2013-03-16 21:52:00,
2013-03-16 18:13:00,34.0,32.0,-100.00,SW,225,2.0,6.0,94,-99.99,,,-99.99,,2013-03-16 22:13:00,
2013-03-16 18:23:00,34.0,32.0,-100.00,SW,225,2.0,6.0,94,-99.99,,,-99.99,,2013-03-16 22:23:00,
2013-03-16 18:33:00,34.0,32.0,-100.00,SSW,210,3.0,5.0,93,-99.99,,,-99.99,,2013-03-16 22:33:00,
2013-03-16 18:42:00,34.0,32.0,-100.00,SSW,205,3.0,5.0,93,-99.99,,,-99.99,,2013-03-16 22:42:00,
2013-03-16 18:52:00,34.0,32.0,-100.00,SSW,205,3.0,5.0,93,-99.99,,,-99.99,,2013-03-16 22:52:00,
2013-03-16 19:03:00,34.0,32.0,-100.00,SSW,210,3.0,4.0,92,-99.99,,,-99.99,,2013-03-16 23:03:00,
2013-03-16 19:13:00,34.0,32.0,-100.00,South,175,2.0,5.0,92,-99.99,,,-99.99,,2013-03-16 23:13:00,
2013-03-16 19:23:00,34.0,32.0,-100.00,South,175,2.0,5.0,92,-99.99,,,-99.99,,2013-03-16 23:23:00,
2013-03-16 19:33:00,34.0,32.0,-100.00,SW,220,2.0,4.0,91,-99.99,,,-99.99,,2013-03-16 23:33:00,
2013-03-16 19:42:00,34.0,31.0,-100.00,SSW,200,2.0,5.0,91,-99.99,,,-99.99,,2013-03-16 23:42:00,
2013-03-16 19:52:00,34.0,31.0,-100.00,SSW,200,2.0,5.0,91,-99.99,,,-99.99,,2013-03-16 23:52:00,
2013-03-16 20:02:00,34.0,31.0,-100.00,South,190,4.0,7.0,90,-99.99,,,-99.99,,2013-03-17 00:02:00,
2013-03-16 20:13:00,34.0,31.0,-100.00,SSW,200,3.0,6.0,90,-99.99,,,-99.99,,2013-03-17 00:13:00,
2013-03-16 20:23:00,34.0,31.0,-100.00,SSW,200,3.0,6.0,90,-99.99,,,-99.99,,2013-03-17 00:23:00,
2013-03-16 20:33:00,34.0,31.0,-100.00,SW,215,2.0,4.0,90,-99.99,,,-99.99,,2013-03-17 00:33:00,
2013-03-16 20:42:00,34.0,31.0,-100.00,West,265,1.0,4.0,89,-99.99,,,-99.99,,2013-03-17 00:42:00,
2013-03-16 20:52:00,34.0,31.0,-100.00,West,265,1.0,4.0,89,-99.99,,,-99.99,,2013-03-17 00:52:00,
2013-03-16 21:03:00,34.0,31.0,-100.00,WSW,245,0.0,4.0,89,-99.99,,,-99.99,,2013-03-17 01:03:00,
2013-03-16 21:12:00,34.0,31.0,-100.00,SW,230,2.0,4.0,89,-99.99,,,-99.99,,2013-03-17 01:12:00,
2013-03-16 21:22:00,34.0,31.0,-100.00,SW,230,2.0,4.0,89,-99.99,,,-99.99,,2013-03-17 01:22:00,
2013-03-16 21:32:00,34.0,31.0,-100.00,WSW,245,2.0,5.0,89,-99.99,,,-99.99,,2013-03-17 01:32:00,
2013-03-16 21:42:00,34.0,31.0,-100.00,SW,235,2.0,4.0,89,-99.99,,,-99.99,,2013-03-17 01:42:00,
2013-03-16 21:52:00,34.0,31.0,-100.00,SW,235,2.0,4.0,89,-99.99,,,-99.99,,2013-03-17 01:52:00,
2013-03-16 22:03:00,33.0,31.0,-100.00,WSW,240,3.0,4.0,89,-99.99,,,-99.99,,2013-03-17 02:03:00,
2013-03-16 22:13:00,34.0,31.0,-100.00,SW,230,2.0,3.0,89,-99.99,,,-99.99,,2013-03-17 02:13:00,
2013-03-16 22:23:00,34.0,31.0,-100.00,SW,230,2.0,3.0,89,-99.99,,,-99.99,,2013-03-17 02:23:00,
2013-03-16 22:33:00,33.0,31.0,-100.00,SE,125,0.0,2.0,89,-99.99,,,-99.99,,2013-03-17 02:33:00,
2013-03-16 22:43:00,33.0,30.0,-100.00,NNE,25,0.0,3.0,88,-99.99,,,-99.99,,2013-03-17 02:43:00,
2013-03-16 22:53:00,33.0,30.0,-100.00,NNE,25,0.0,3.0,88,-99.99,,,-99.99,,2013-03-17 02:53:00,
2013-03-16 23:03:00,33.0,30.0,-100.00,SW,220,0.0,3.0,88,-99.99,,,-99.99,,2013-03-17 03:03:00,
2013-03-16 23:12:00,33.0,30.0,-100.00,South,190,1.0,2.0,87,-99.99,,,-99.99,,2013-03-17 03:12:00,
2013-03-16 23:23:00,33.0,30.0,-100.00,South,190,1.0,2.0,87,-99.99,,,-99.99,,2013-03-17 03:23:00,
2013-03-16 23:34:00,33.0,30.0,-100.00,South,185,1.0,2.0,86,-99.99,,,-99.99,,2013-03-17 03:34:00,
2013-03-16 23:43:00,34.0,30.0,-100.00,SE,145,1.0,3.0,85,-99.99,,,-99.99,,2013-03-17 03:43:00,
2013-03-16 23:52:00,34.0,30.0,-100.00,SE,145,1.0,3.0,85,-99.99,,,-99.99,,2013-03-17 03:52:00,